| time (UTC) | temp F | wind direction | speed MPH | gust MPH | rain 1hr in | rain 24hr in | rain mn in | humidity % | barometer mb |
| 20260905104017 | 71 | 41 | 0.0 | 0.0 | 0.00 | 0.10 | 0.00 | 69 | 1017.9 |
| 20260905103519 | 71 | 41 | 0.0 | 0.0 | 0.00 | 0.10 | 0.00 | 70 | 1017.9 |
| 20260905103017 | 71 | 41 | 0.0 | 0.0 | 0.00 | 0.10 | 0.00 | 70 | 1017.8 |
| 20260905102520 | 71 | 41 | 0.0 | 0.0 | 0.00 | 0.10 | 0.00 | 69 | 1017.7 |
| 20260905102016 | 71 | 41 | 0.0 | 1.0 | 0.00 | 0.10 | 0.00 | 69 | 1017.7 |
| 20260905101516 | 71 | 41 | 0.0 | 1.0 | 0.00 | 0.10 | 0.00 | 68 | 1017.7 |
| 20260905101015 | 72 | 41 | 0.0 | 1.0 | 0.00 | 0.10 | 0.00 | 69 | 1017.6 |
| 20260905100515 | 71 | 41 | 0.0 | 1.0 | 0.00 | 0.10 | 0.00 | 70 | 1017.6 |
| 20260905100015 | 71 | 41 | 0.0 | 0.0 | 0.00 | 0.10 | 0.00 | 70 | 1017.7 |
| 20260905095519 | 71 | 41 | 0.0 | 1.0 | 0.00 | 0.10 | 0.00 | 70 | 1017.7 |
| 20260905095016 | 72 | 41 | 0.0 | 1.0 | 0.00 | 0.10 | 0.00 | 70 | 1017.7 |
| 20260905094514 | 72 | 41 | 0.0 | 0.0 | 0.00 | 0.10 | 0.00 | 69 | 1017.6 |
| 20260905094012 | 72 | 41 | 0.0 | 1.0 | 0.00 | 0.10 | 0.00 | 68 | 1017.5 |
| 20260905093512 | 72 | 41 | 0.0 | 2.0 | 0.00 | 0.10 | 0.00 | 66 | 1017.5 |
| 20260905093015 | 72 | 41 | 0.0 | 2.0 | 0.00 | 0.10 | 0.00 | 66 | 1017.5 |
| 20260905092511 | 72 | 41 | 0.0 | 1.0 | 0.00 | 0.10 | 0.00 | 66 | 1017.5 |
| 20260905092011 | 72 | 41 | 0.0 | 2.0 | 0.00 | 0.10 | 0.00 | 67 | 1017.5 |
| 20260905091514 | 72 | 41 | 0.0 | 2.0 | 0.00 | 0.10 | 0.00 | 67 | 1017.4 |
| 20260905091010 | 73 | 1 | 0.0 | 2.0 | 0.00 | 0.10 | 0.00 | 69 | 1017.5 |
| 20260905090509 | 73 | 1 | 0.0 | 1.0 | 0.00 | 0.10 | 0.00 | 67 | 1017.5 |
| 20260905090016 | 73 | 1 | 0.0 | 1.0 | 0.00 | 0.10 | 0.00 | 67 | 1017.5 |
| 20260905085509 | 73 | 1 | 0.0 | 1.0 | 0.00 | 0.10 | 0.00 | 67 | 1017.5 |
| 20260905085008 | 73 | 1 | 0.0 | 1.0 | 0.00 | 0.10 | 0.00 | 66 | 1017.5 |
| 20260905084508 | 73 | 1 | 0.0 | 2.0 | 0.00 | 0.10 | 0.00 | 66 | 1017.6 |
| 20260905084007 | 73 | 1 | 0.0 | 2.0 | 0.00 | 0.10 | 0.00 | 68 | 1017.6 |
| 20260905083507 | 73 | 1 | 0.0 | 2.0 | 0.00 | 0.10 | 0.00 | 68 | 1017.6 |
| 20260905083007 | 74 | 1 | 0.0 | 2.0 | 0.00 | 0.10 | 0.00 | 67 | 1017.5 |
| 20260905082506 | 74 | 1 | 0.0 | 1.0 | 0.00 | 0.10 | 0.00 | 66 | 1017.5 |
| 20260905082008 | 74 | 1 | 0.0 | 1.0 | 0.00 | 0.10 | 0.00 | 68 | 1017.5 |
| 20260905081505 | 74 | 1 | 0.0 | 1.0 | 0.00 | 0.10 | 0.00 | 67 | 1017.6 |
| 20260905081006 | 74 | 1 | 0.0 | 1.0 | 0.00 | 0.10 | 0.00 | 65 | 1017.5 |
| 20260905080503 | 74 | 1 | 0.0 | 0.0 | 0.00 | 0.10 | 0.00 | 66 | 1017.5 |
| 20260905080004 | 74 | 1 | 0.0 | 2.0 | 0.00 | 0.10 | 0.00 | 64 | 1017.5 |
| 20260905075502 | 75 | 1 | 0.0 | 2.0 | 0.00 | 0.10 | 0.00 | 62 | 1017.5 |
| 20260905075003 | 75 | 1 | 0.0 | 2.0 | 0.00 | 0.10 | 0.00 | 62 | 1017.6 |
| 20260905074501 | 75 | 1 | 1.0 | 4.0 | 0.00 | 0.10 | 0.00 | 63 | 1017.6 |
| 20260905074000 | 74 | 1 | 1.0 | 3.0 | 0.00 | 0.10 | 0.00 | 64 | 1017.7 |
| 20260905073602 | 74 | 1 | 0.0 | 1.0 | 0.00 | 0.10 | 0.00 | 65 | 1017.7 |
| 20260905073101 | 75 | 1 | 0.0 | 1.0 | 0.00 | 0.10 | 0.00 | 65 | 1017.7 |
| 20260905072558 | 75 | 1 | 0.0 | 2.0 | 0.00 | 0.10 | 0.00 | 63 | 1017.8 |
| 20260905072059 | 76 | 1 | 0.0 | 2.0 | 0.00 | 0.10 | 0.00 | 62 | 1017.8 |
| 20260905071558 | 76 | 1 | 0.0 | 5.0 | 0.00 | 0.10 | 0.00 | 61 | 1017.8 |
| 20260905071058 | 76 | 1 | 1.0 | 5.0 | 0.00 | 0.10 | 0.00 | 61 | 1017.7 |
| 20260905070555 | 76 | 1 | 1.0 | 3.0 | 0.00 | 0.10 | 0.00 | 61 | 1017.9 |
| 20260905070055 | 76 | 1 | 2.0 | 4.0 | 0.00 | 0.10 | 0.00 | 61 | 1017.8 |
| 20260905065554 | 76 | 56 | 0.0 | 4.0 | 0.00 | 0.10 | 0.00 | 59 | 1017.8 |
| 20260905065054 | 77 | 56 | 0.0 | 2.0 | 0.00 | 0.10 | 0.00 | 60 | 1017.7 |
| 20260905064552 | 77 | 56 | 0.0 | 2.0 | 0.00 | 0.10 | 0.00 | 58 | 1017.7 |
| 20260905064051 | 77 | 56 | 0.0 | 2.0 | 0.00 | 0.10 | 0.00 | 58 | 1017.7 |
| 20260905063551 | 77 | 56 | 0.0 | 4.0 | 0.00 | 0.10 | 0.00 | 58 | 1017.7 |
| 20260905063055 | 77 | 56 | 0.0 | 4.0 | 0.00 | 0.10 | 0.00 | 57 | 1017.7 |
| 20260905062551 | 77 | 38 | 0.0 | 1.0 | 0.00 | 0.10 | 0.00 | 58 | 1017.7 |
| 20260905062049 | 77 | 38 | 0.0 | 1.0 | 0.00 | 0.10 | 0.00 | 57 | 1017.7 |
| 20260905061556 | 78 | 38 | 0.0 | 2.0 | 0.00 | 0.10 | 0.00 | 57 | 1017.8 |
| 20260905061049 | 78 | 38 | 0.0 | 4.0 | 0.00 | 0.10 | 0.00 | 56 | 1017.8 |
| 20260905060546 | 78 | 38 | 0.0 | 4.0 | 0.00 | 0.10 | 0.00 | 55 | 1017.7 |
| 20260905060045 | 78 | 13 | 0.0 | 4.0 | 0.00 | 0.10 | 0.00 | 55 | 1017.7 |
| 20260905055545 | 78 | 47 | 0.0 | 5.0 | 0.00 | 0.10 | 0.10 | 55 | 1017.7 |
| 20260905055048 | 78 | 36 | 0.0 | 5.0 | 0.00 | 0.10 | 0.10 | 56 | 1017.7 |
| 20260905054545 | 78 | 32 | 1.0 | 3.0 | 0.00 | 0.10 | 0.10 | 56 | 1017.7 |
| 20260905054044 | 78 | 69 | 1.0 | 4.0 | 0.00 | 0.10 | 0.10 | 56 | 1017.7 |
| 20260905053545 | 78 | 30 | 0.0 | 2.0 | 0.00 | 0.10 | 0.10 | 56 | 1017.8 |
| 20260905053044 | 78 | 52 | 0.0 | 4.0 | 0.00 | 0.10 | 0.10 | 57 | 1017.8 |
| 20260905052543 | 78 | 45 | 1.0 | 3.0 | 0.00 | 0.10 | 0.10 | 56 | 1017.8 |
| 20260905052043 | 78 | 33 | 0.0 | 2.0 | 0.00 | 0.10 | 0.10 | 57 | 1017.8 |
| 20260905051545 | 78 | 33 | 0.0 | 2.0 | 0.00 | 0.10 | 0.10 | 57 | 1017.8 |
| 20260905051043 | 78 | 33 | 0.0 | 5.0 | 0.00 | 0.10 | 0.10 | 57 | 1017.7 |
| 20260905050543 | 78 | 38 | 0.0 | 5.0 | 0.00 | 0.10 | 0.10 | 56 | 1017.7 |
| 20260905050043 | 78 | 22 | 1.0 | 5.0 | 0.00 | 0.10 | 0.10 | 57 | 1017.7 |
| 20260905045542 | 78 | 36 | 1.0 | 3.0 | 0.00 | 0.10 | 0.10 | 58 | 1017.8 |
| 20260905045042 | 78 | 8 | 1.0 | 4.0 | 0.00 | 0.10 | 0.10 | 57 | 1017.9 |
| 20260905044541 | 79 | 355 | 1.0 | 5.0 | 0.00 | 0.10 | 0.10 | 59 | 1017.9 |
| 20260905044041 | 79 | 346 | 1.0 | 5.0 | 0.00 | 0.10 | 0.10 | 58 | 1017.9 |
| 20260905043543 | 79 | 9 | 0.0 | 5.0 | 0.00 | 0.10 | 0.10 | 58 | 1017.9 |
| 20260905043052 | 79 | 353 | 2.0 | 4.0 | 0.00 | 0.10 | 0.10 | 57 | 1017.9 |
| 20260905042541 | 79 | 15 | 1.0 | 3.0 | 0.00 | 0.10 | 0.10 | 58 | 1017.9 |
| 20260905042043 | 78 | 347 | 1.0 | 4.0 | 0.00 | 0.10 | 0.10 | 58 | 1017.9 |
| 20260905041541 | 78 | 347 | 0.0 | 2.0 | 0.00 | 0.10 | 0.10 | 59 | 1017.8 |
| 20260905041040 | 78 | 347 | 0.0 | 1.0 | 0.00 | 0.10 | 0.10 | 63 | 1017.8 |
| 20260905040540 | 78 | 347 | 0.0 | 1.0 | 0.00 | 0.10 | 0.10 | 61 | 1017.8 |
| 20260905040043 | 77 | 347 | 0.0 | 0.0 | 0.00 | 0.10 | 0.10 | 61 | 1017.7 |
| 20260905035543 | 77 | 347 | 0.0 | 1.0 | 0.00 | 0.10 | 0.10 | 67 | 1017.7 |
| 20260905035043 | 78 | 347 | 0.0 | 1.0 | 0.00 | 0.10 | 0.10 | 66 | 1017.7 |
| 20260905034550 | 78 | 347 | 0.0 | 0.0 | 0.00 | 0.10 | 0.10 | 67 | 1017.6 |
| 20260905034038 | 78 | 347 | 0.0 | 0.0 | 0.00 | 0.10 | 0.10 | 66 | 1017.5 |
| 20260905033540 | 78 | 347 | 0.0 | 1.0 | 0.00 | 0.10 | 0.10 | 66 | 1017.5 |
| 20260905033107 | 79 | 347 | 0.0 | 1.0 | 0.00 | 0.10 | 0.10 | 65 | 1017.4 |
| 20260905032538 | 79 | 347 | 0.0 | 0.0 | 0.00 | 0.10 | 0.10 | 64 | 1017.4 |
| 20260905032038 | 79 | 347 | 0.0 | 2.0 | 0.00 | 0.10 | 0.10 | 62 | 1017.4 |
| 20260905031550 | 79 | 347 | 0.0 | 2.0 | 0.00 | 0.10 | 0.10 | 60 | 1017.4 |
| 20260905031036 | 79 | 347 | 0.0 | 2.0 | 0.00 | 0.10 | 0.10 | 61 | 1017.3 |
| 20260905030535 | 79 | 347 | 1.0 | 2.0 | 0.00 | 0.10 | 0.10 | 62 | 1017.3 |
| 20260905030050 | 79 | 347 | 0.0 | 4.0 | 0.00 | 0.10 | 0.10 | 61 | 1017.3 |
| 20260905025535 | 80 | 347 | 1.0 | 4.0 | 0.00 | 0.10 | 0.10 | 59 | 1017.2 |
| 20260905025034 | 80 | 347 | 0.0 | 4.0 | 0.00 | 0.10 | 0.10 | 57 | 1017.2 |
| 20260905024534 | 80 | 347 | 1.0 | 4.0 | 0.00 | 0.10 | 0.10 | 57 | 1017.1 |
| 20260905024034 | 80 | 350 | 1.0 | 4.0 | 0.00 | 0.10 | 0.10 | 57 | 1017.0 |
| 20260905023534 | 80 | 348 | 0.0 | 4.0 | 0.00 | 0.10 | 0.10 | 57 | 1017.0 |
| 20260905023035 | 80 | 348 | 0.0 | 4.0 | 0.00 | 0.10 | 0.10 | 57 | 1017.0 |
| 20260905022533 | 80 | 348 | 0.0 | 4.0 | 0.00 | 0.10 | 0.10 | 58 | 1016.9 |
| 20260905022034 | 80 | 348 | 1.0 | 3.0 | 0.00 | 0.10 | 0.10 | 57 | 1016.9 |
| 20260905021534 | 80 | 346 | 1.0 | 5.0 | 0.01 | 0.10 | 0.10 | 56 | 1016.9 |
| 20260905021033 | 80 | 342 | 1.0 | 5.0 | 0.01 | 0.10 | 0.10 | 57 | 1016.9 |
| 20260905020533 | 80 | 348 | 1.0 | 5.0 | 0.01 | 0.10 | 0.10 | 58 | 1016.8 |
| 20260905020038 | 80 | 336 | 1.0 | 4.0 | 0.01 | 0.10 | 0.10 | 60 | 1016.7 |
| 20260905015533 | 79 | 300 | 1.0 | 3.0 | 0.04 | 0.10 | 0.10 | 61 | 1016.7 |
| 20260905015032 | 79 | 358 | 1.0 | 4.0 | 0.04 | 0.10 | 0.10 | 62 | 1016.5 |
| 20260905014531 | 79 | 352 | 1.0 | 3.0 | 0.04 | 0.10 | 0.10 | 63 | 1016.6 |
| 20260905014033 | 79 | 352 | 1.0 | 6.0 | 0.04 | 0.10 | 0.10 | 61 | 1016.5 |
| 20260905013532 | 79 | 354 | 1.0 | 6.0 | 0.04 | 0.10 | 0.10 | 64 | 1016.4 |
| 20260905013031 | 79 | 348 | 2.0 | 6.0 | 0.04 | 0.10 | 0.10 | 63 | 1016.4 |
| 20260905012532 | 78 | 1 | 1.0 | 6.0 | 0.04 | 0.10 | 0.10 | 67 | 1016.3 |
| 20260905012032 | 78 | 345 | 3.0 | 7.0 | 0.04 | 0.10 | 0.10 | 68 | 1016.3 |
| 20260905011536 | 77 | 360 | 2.0 | 8.0 | 0.03 | 0.09 | 0.09 | 70 | 1016.3 |
| 20260905011031 | 77 | 13 | 4.0 | 9.0 | 0.03 | 0.09 | 0.09 | 73 | 1016.3 |
| 20260905010531 | 78 | 350 | 5.0 | 11.0 | 0.03 | 0.09 | 0.09 | 68 | 1016.4 |
| 20260905010033 | 80 | 296 | 6.0 | 12.0 | 0.03 | 0.09 | 0.09 | 63 | 1016.5 |
| 20260905005531 | 83 | 312 | 6.0 | 13.0 | 0.00 | 0.06 | 0.06 | 53 | 1016.3 |
| 20260905005031 | 84 | 335 | 7.0 | 13.0 | 0.00 | 0.06 | 0.06 | 48 | 1016.3 |
| 20260905004530 | 84 | 330 | 6.0 | 14.0 | 0.00 | 0.06 | 0.06 | 48 | 1016.3 |
| 20260905004029 | 85 | 336 | 9.0 | 14.0 | 0.00 | 0.06 | 0.06 | 46 | 1016.3 |
| 20260905003529 | 85 | 319 | 5.0 | 14.0 | 0.00 | 0.06 | 0.06 | 46 | 1016.3 |
| 20260905003033 | 86 | 320 | 6.0 | 13.0 | 0.00 | 0.06 | 0.06 | 45 | 1016.2 |
| 20260905002529 | 87 | 311 | 5.0 | 13.0 | 0.00 | 0.06 | 0.06 | 42 | 1016.2 |
| 20260905002029 | 88 | 313 | 7.0 | 13.0 | 0.00 | 0.06 | 0.06 | 40 | 1016.1 |
| 20260905001529 | 90 | 218 | 2.0 | 7.0 | 0.00 | 0.06 | 0.06 | 36 | 1016.0 |
| 20260905001029 | 90 | 226 | 3.0 | 7.0 | 0.00 | 0.06 | 0.06 | 36 | 1015.8 |
| 20260905000529 | 90 | 258 | 3.0 | 7.0 | 0.00 | 0.06 | 0.06 | 36 | 1015.9 |
| 20260905000028 | 90 | 300 | 3.0 | 7.0 | 0.00 | 0.06 | 0.06 | 35 | 1015.8 |
| 20260904235528 | 91 | 319 | 2.0 | 7.0 | 0.00 | 0.06 | 0.06 | 35 | 1015.8 |
| 20260904235028 | 91 | 321 | 3.0 | 7.0 | 0.00 | 0.06 | 0.06 | 34 | 1015.8 |
| 20260904234527 | 91 | 234 | 3.0 | 7.0 | 0.00 | 0.06 | 0.06 | 35 | 1015.8 |
| 20260904234028 | 91 | 240 | 3.0 | 7.0 | 0.00 | 0.06 | 0.06 | 36 | 1015.8 |
| 20260904233528 | 90 | 184 | 2.0 | 7.0 | 0.00 | 0.06 | 0.06 | 36 | 1015.8 |
| 20260904233030 | 90 | 254 | 5.0 | 8.0 | 0.00 | 0.06 | 0.06 | 36 | 1015.8 |
| 20260904232526 | 91 | 249 | 5.0 | 8.0 | 0.00 | 0.06 | 0.06 | 36 | 1015.8 |
| 20260904232028 | 91 | 246 | 2.0 | 6.0 | 0.00 | 0.06 | 0.06 | 37 | 1015.9 |
| 20260904231535 | 91 | 346 | 2.0 | 8.0 | 0.00 | 0.06 | 0.06 | 36 | 1015.9 |
| 20260904231026 | 91 | 310 | 4.0 | 10.0 | 0.00 | 0.06 | 0.06 | 37 | 1016.0 |
| 20260904230526 | 91 | 165 | 1.0 | 10.0 | 0.00 | 0.06 | 0.06 | 37 | 1015.9 |
| 20260904230042 | 91 | 281 | 6.0 | 9.0 | 0.00 | 0.06 | 0.06 | 37 | 1015.9 |
| 20260904225527 | 91 | 281 | 2.0 | 8.0 | 0.00 | 0.06 | 0.06 | 36 | 1015.9 |
| 20260904225026 | 91 | 250 | 4.0 | 8.0 | 0.00 | 0.06 | 0.06 | 36 | 1015.8 |
| 20260904224525 | 90 | 195 | 1.0 | 5.0 | 0.00 | 0.06 | 0.06 | 38 | 1015.8 |
| 20260904224025 | 91 | 119 | 0.0 | 6.0 | 0.00 | 0.06 | 0.06 | 38 | 1015.8 |
| 20260904223524 | 91 | 109 | 2.0 | 5.0 | 0.00 | 0.06 | 0.06 | 39 | 1015.9 |
| 20260904223024 | 89 | 112 | 1.0 | 5.0 | 0.00 | 0.06 | 0.06 | 41 | 1015.9 |
| 20260904222522 | 88 | 334 | 2.0 | 7.0 | 0.00 | 0.06 | 0.06 | 40 | 1016.0 |
| 20260904222022 | 89 | 348 | 3.0 | 7.0 | 0.00 | 0.06 | 0.06 | 40 | 1016.1 |
| 20260904221521 | 90 | 324 | 1.0 | 4.0 | 0.00 | 0.06 | 0.06 | 40 | 1016.2 |
| 20260904221022 | 90 | 18 | 0.0 | 4.0 | 0.00 | 0.06 | 0.06 | 40 | 1016.2 |
| 20260904220521 | 88 | 169 | 0.0 | 2.0 | 0.00 | 0.06 | 0.06 | 42 | 1016.3 |
| 20260904220021 | 89 | 169 | 0.0 | 5.0 | 0.00 | 0.06 | 0.06 | 41 | 1016.4 |
| 20260904215521 | 88 | 240 | 1.0 | 5.0 | 0.00 | 0.06 | 0.06 | 41 | 1016.5 |
| 20260904215019 | 88 | 311 | 0.0 | 6.0 | 0.00 | 0.06 | 0.06 | 41 | 1016.5 |
| 20260904214620 | 89 | 307 | 1.0 | 7.0 | 0.00 | 0.06 | 0.06 | 41 | 1016.5 |
| 20260904214019 | 90 | 334 | 2.0 | 7.0 | 0.00 | 0.06 | 0.06 | 39 | 1016.5 |
| 20260904213518 | 91 | 30 | 0.0 | 8.0 | 0.00 | 0.06 | 0.06 | 39 | 1016.6 |
| 20260904213027 | 90 | 178 | 4.0 | 8.0 | 0.00 | 0.06 | 0.06 | 40 | 1016.8 |
| 20260904212517 | 90 | 260 | 4.0 | 8.0 | 0.00 | 0.06 | 0.06 | 40 | 1016.8 |
| 20260904212017 | 91 | 225 | 3.0 | 8.0 | 0.00 | 0.06 | 0.06 | 40 | 1016.8 |
| 20260904211515 | 90 | 281 | 1.0 | 6.0 | 0.00 | 0.06 | 0.06 | 40 | 1016.8 |
| 20260904211015 | 89 | 31 | 1.0 | 8.0 | 0.00 | 0.06 | 0.06 | 40 | 1016.8 |
| 20260904210515 | 90 | 199 | 2.0 | 8.0 | 0.00 | 0.06 | 0.06 | 40 | 1016.9 |
| 20260904210014 | 90 | 300 | 4.0 | 8.0 | 0.00 | 0.06 | 0.06 | 41 | 1017.0 |
| 20260904205513 | 90 | 169 | 4.0 | 8.0 | 0.00 | 0.06 | 0.06 | 40 | 1017.0 |
| 20260904205012 | 90 | 355 | 1.0 | 10.0 | 0.00 | 0.06 | 0.06 | 39 | 1017.0 |
| 20260904204521 | 90 | 248 | 3.0 | 10.0 | 0.00 | 0.06 | 0.06 | 40 | 1017.1 |
| 20260904204012 | 89 | 232 | 2.0 | 6.0 | 0.00 | 0.06 | 0.06 | 42 | 1017.3 |
| 20260904203510 | 89 | 171 | 2.0 | 5.0 | 0.00 | 0.06 | 0.06 | 41 | 1017.3 |
| 20260904203016 | 88 | 315 | 1.0 | 10.0 | 0.00 | 0.06 | 0.06 | 43 | 1017.5 |
| 20260904202512 | 88 | 182 | 5.0 | 10.0 | 0.00 | 0.06 | 0.06 | 43 | 1017.4 |
| 20260904202010 | 88 | 292 | 2.0 | 9.0 | 0.00 | 0.06 | 0.06 | 43 | 1017.6 |
| 20260904201508 | 89 | 244 | 4.0 | 9.0 | 0.00 | 0.06 | 0.06 | 42 | 1017.7 |
| 20260904201008 | 88 | 265 | 4.0 | 10.0 | 0.00 | 0.06 | 0.06 | 44 | 1017.8 |
| 20260904200509 | 88 | 164 | 4.0 | 10.0 | 0.00 | 0.06 | 0.06 | 42 | 1017.8 |
| 20260904200007 | 88 | 169 | 4.0 | 10.0 | 0.00 | 0.06 | 0.06 | 43 | 1017.8 |
| 20260904195507 | 87 | 184 | 3.0 | 13.0 | 0.00 | 0.06 | 0.06 | 44 | 1017.8 |
| 20260904195007 | 87 | 159 | 3.0 | 13.0 | 0.00 | 0.06 | 0.06 | 44 | 1017.9 |
| 20260904194507 | 88 | 186 | 4.0 | 10.0 | 0.00 | 0.06 | 0.06 | 44 | 1018.1 |
| 20260904194006 | 88 | 173 | 5.0 | 10.0 | 0.00 | 0.06 | 0.06 | 45 | 1018.1 |
| 20260904193504 | 87 | 165 | 0.0 | 4.0 | 0.00 | 0.06 | 0.06 | 45 | 1018.2 |
| 20260904193003 | 86 | 215 | 1.0 | 8.0 | 0.00 | 0.06 | 0.06 | 45 | 1018.2 |
| 20260904192503 | 87 | 300 | 1.0 | 8.0 | 0.00 | 0.06 | 0.06 | 46 | 1018.3 |
| 20260904192003 | 86 | 236 | 3.0 | 10.0 | 0.00 | 0.06 | 0.06 | 45 | 1018.4 |
| 20260904191502 | 86 | 315 | 3.0 | 9.0 | 0.00 | 0.06 | 0.06 | 45 | 1018.5 |
| 20260904191001 | 85 | 237 | 0.0 | 7.0 | 0.00 | 0.06 | 0.06 | 48 | 1018.5 |
| 20260904190501 | 85 | 211 | 4.0 | 7.0 | 0.00 | 0.06 | 0.06 | 49 | 1018.6 |
| 20260904190002 | 85 | 254 | 3.0 | 9.0 | 0.00 | 0.06 | 0.06 | 50 | 1018.7 |
| 20260904185601 | 84 | 241 | 2.0 | 9.0 | 0.00 | 0.06 | 0.06 | 51 | 1018.8 |
| 20260904185104 | 85 | 246 | 5.0 | 9.0 | 0.00 | 0.06 | 0.06 | 49 | 1018.9 |
| 20260904184600 | 85 | 202 | 5.0 | 7.0 | 0.00 | 0.06 | 0.06 | 49 | 1018.9 |
| 20260904184059 | 85 | 123 | 1.0 | 5.0 | 0.00 | 0.06 | 0.06 | 48 | 1019.0 |
| 20260904183601 | 84 | 345 | 0.0 | 8.0 | 0.00 | 0.06 | 0.06 | 50 | 1019.1 |
| 20260904183115 | 84 | 238 | 3.0 | 8.0 | 0.00 | 0.06 | 0.06 | 49 | 1019.3 |
| 20260904182558 | 84 | 161 | 4.0 | 8.0 | 0.00 | 0.06 | 0.06 | 50 | 1019.3 |
| 20260904182056 | 84 | 196 | 2.0 | 8.0 | 0.00 | 0.06 | 0.06 | 52 | 1019.4 |
| 20260904181556 | 84 | 178 | 1.0 | 8.0 | 0.00 | 0.06 | 0.06 | 53 | 1019.5 |
| 20260904181056 | 84 | 294 | 0.0 | 5.0 | 0.00 | 0.06 | 0.06 | 52 | 1019.5 |
| 20260904180556 | 85 | 100 | 1.0 | 3.0 | 0.00 | 0.06 | 0.06 | 53 | 1019.6 |
| 20260904180058 | 83 | 102 | 1.0 | 9.0 | 0.00 | 0.06 | 0.06 | 55 | 1019.7 |
| 20260904175553 | 81 | 254 | 4.0 | 9.0 | 0.00 | 0.06 | 0.06 | 57 | 1019.8 |
| 20260904175052 | 82 | 251 | 2.0 | 7.0 | 0.00 | 0.06 | 0.06 | 57 | 1019.8 |
| 20260904174550 | 81 | 344 | 2.0 | 6.0 | 0.00 | 0.06 | 0.06 | 57 | 1019.8 |
| 20260904174051 | 81 | 205 | 1.0 | 7.0 | 0.00 | 0.06 | 0.06 | 59 | 1019.8 |
| 20260904173550 | 81 | 250 | 3.0 | 7.0 | 0.00 | 0.06 | 0.06 | 58 | 1019.9 |
| 20260904173055 | 81 | 150 | 1.0 | 7.0 | 0.00 | 0.06 | 0.06 | 60 | 1019.9 |
| 20260904172549 | 80 | 193 | 1.0 | 6.0 | 0.00 | 0.06 | 0.06 | 59 | 1020.0 |
| 20260904172049 | 80 | 276 | 2.0 | 6.0 | 0.00 | 0.06 | 0.06 | 59 | 1020.0 |
| 20260904171607 | 80 | 25 | 1.0 | 6.0 | 0.00 | 0.06 | 0.06 | 59 | 1020.0 |
| 20260904171048 | 79 | 303 | 4.0 | 6.0 | 0.00 | 0.06 | 0.06 | 62 | 1020.0 |
| 20260904170548 | 79 | 223 | 2.0 | 5.0 | 0.00 | 0.06 | 0.06 | 62 | 1020.0 |
| 20260904170047 | 79 | 343 | 1.0 | 7.0 | 0.00 | 0.06 | 0.06 | 62 | 1020.1 |
| 20260904165547 | 79 | 247 | 1.0 | 7.0 | 0.00 | 0.06 | 0.06 | 62 | 1020.1 |
| 20260904165047 | 79 | 216 | 3.0 | 6.0 | 0.00 | 0.06 | 0.06 | 62 | 1020.1 |
| 20260904164556 | 78 | 342 | 1.0 | 6.0 | 0.00 | 0.06 | 0.06 | 63 | 1020.0 |
| 20260904164046 | 77 | 276 | 2.0 | 6.0 | 0.00 | 0.06 | 0.06 | 65 | 1020.1 |
| 20260904163544 | 76 | 286 | 2.0 | 5.0 | 0.00 | 0.06 | 0.06 | 66 | 1020.1 |
| 20260904163044 | 76 | 276 | 0.0 | 5.0 | 0.00 | 0.06 | 0.06 | 65 | 1020.1 |
| 20260904162544 | 77 | 276 | 2.0 | 5.0 | 0.00 | 0.06 | 0.06 | 65 | 1020.0 |
| 20260904162043 | 76 | 286 | 0.0 | 6.0 | 0.00 | 0.06 | 0.06 | 65 | 1020.1 |
| 20260904161548 | 76 | 211 | 0.0 | 6.0 | 0.00 | 0.06 | 0.06 | 68 | 1020.0 |
| 20260904161043 | 75 | 204 | 0.0 | 2.0 | 0.00 | 0.06 | 0.06 | 70 | 1020.0 |
| 20260904160542 | 75 | 203 | 0.0 | 5.0 | 0.00 | 0.06 | 0.06 | 70 | 1019.9 |
| 20260904160041 | 74 | 208 | 2.0 | 5.0 | 0.00 | 0.06 | 0.06 | 71 | 1020.0 |
| 20260904155541 | 74 | 211 | 2.0 | 6.0 | 0.00 | 0.06 | 0.06 | 72 | 1020.0 |
| 20260904155040 | 74 | 227 | 2.0 | 6.0 | 0.00 | 0.06 | 0.06 | 73 | 1020.0 |
| 20260904154539 | 73 | 168 | 2.0 | 6.0 | 0.00 | 0.06 | 0.06 | 75 | 1020.0 |
| 20260904154038 | 73 | 195 | 2.0 | 5.0 | 0.00 | 0.06 | 0.06 | 75 | 1020.0 |
| 20260904153536 | 72 | 165 | 1.0 | 5.0 | 0.00 | 0.06 | 0.06 | 76 | 1020.0 |
| 20260904153054 | 72 | 203 | 1.0 | 5.0 | 0.00 | 0.06 | 0.06 | 78 | 1020.0 |
| 20260904152533 | 72 | 215 | 1.0 | 3.0 | 0.00 | 0.06 | 0.06 | 78 | 1019.9 |
| 20260904152034 | 72 | 248 | 2.0 | 5.0 | 0.00 | 0.06 | 0.06 | 78 | 1019.8 |
| 20260904151533 | 72 | 260 | 2.0 | 6.0 | 0.00 | 0.06 | 0.06 | 79 | 1019.8 |
| 20260904151032 | 72 | 206 | 1.0 | 6.0 | 0.00 | 0.06 | 0.06 | 80 | 1019.8 |
| 20260904150532 | 72 | 217 | 2.0 | 6.0 | 0.00 | 0.06 | 0.06 | 79 | 1019.8 |
| 20260904150040 | 71 | 248 | 1.0 | 3.0 | 0.00 | 0.06 | 0.06 | 81 | 1019.8 |
| 20260904145532 | 71 | 163 | 0.0 | 3.0 | 0.00 | 0.06 | 0.06 | 81 | 1019.8 |
| 20260904145034 | 71 | 163 | 0.0 | 5.0 | 0.00 | 0.06 | 0.06 | 83 | 1019.7 |
| 20260904144530 | 71 | 163 | 1.0 | 5.0 | 0.00 | 0.06 | 0.06 | 82 | 1019.7 |
| 20260904144029 | 71 | 196 | 1.0 | 4.0 | 0.00 | 0.06 | 0.06 | 83 | 1019.7 |
| 20260904143528 | 70 | 196 | 1.0 | 3.0 | 0.00 | 0.06 | 0.06 | 83 | 1019.8 |
| 20260904143026 | 70 | 250 | 1.0 | 3.0 | 0.00 | 0.06 | 0.06 | 84 | 1019.8 |
| 20260904142528 | 70 | 250 | 1.0 | 5.0 | 0.00 | 0.06 | 0.06 | 83 | 1019.8 |
| 20260904142024 | 70 | 250 | 1.0 | 5.0 | 0.00 | 0.06 | 0.06 | 84 | 1019.7 |
| 20260904141523 | 70 | 224 | 2.0 | 4.0 | 0.00 | 0.06 | 0.06 | 84 | 1019.7 |
| 20260904141023 | 70 | 205 | 0.0 | 4.0 | 0.01 | 0.06 | 0.06 | 84 | 1019.7 |
| 20260904140521 | 70 | 205 | 1.0 | 4.0 | 0.01 | 0.06 | 0.06 | 83 | 1019.7 |
| 20260904140031 | 70 | 206 | 1.0 | 3.0 | 0.01 | 0.06 | 0.06 | 83 | 1019.5 |
| 20260904135519 | 70 | 205 | 1.0 | 3.0 | 0.01 | 0.06 | 0.06 | 83 | 1019.6 |
| 20260904135018 | 70 | 106 | 0.0 | 2.0 | 0.01 | 0.06 | 0.06 | 85 | 1019.4 |
| 20260904134516 | 70 | 106 | 0.0 | 2.0 | 0.01 | 0.06 | 0.06 | 86 | 1019.4 |
| 20260904134018 | 70 | 106 | 0.0 | 0.0 | 0.01 | 0.06 | 0.06 | 85 | 1019.4 |
| 20260904133513 | 70 | 106 | 0.0 | 0.0 | 0.01 | 0.06 | 0.06 | 85 | 1019.3 |
| 20260904133012 | 70 | 106 | 0.0 | 0.0 | 0.01 | 0.06 | 0.06 | 86 | 1019.3 |
| 20260904132511 | 69 | 106 | 0.0 | 0.0 | 0.02 | 0.06 | 0.06 | 86 | 1019.3 |
| 20260904132111 | 69 | 106 | 0.0 | 2.0 | 0.02 | 0.06 | 0.06 | 86 | 1019.2 |
| 20260904131533 | 69 | 106 | 0.0 | 2.0 | 0.02 | 0.06 | 0.06 | 86 | 1019.2 |
| 20260904131012 | 69 | 106 | 0.0 | 1.0 | 0.02 | 0.05 | 0.05 | 87 | 1019.2 |
| 20260904130512 | 69 | 106 | 0.0 | 1.0 | 0.02 | 0.05 | 0.05 | 87 | 1019.0 |
| 20260904130009 | 69 | 106 | 0.0 | 2.0 | 0.03 | 0.05 | 0.05 | 87 | 1019.0 |
| 20260904125510 | 69 | 106 | 0.0 | 2.0 | 0.03 | 0.05 | 0.05 | 86 | 1019.0 |
| 20260904125008 | 69 | 106 | 0.0 | 2.0 | 0.03 | 0.05 | 0.05 | 87 | 1018.9 |
| 20260904124507 | 69 | 106 | 0.0 | 2.0 | 0.03 | 0.05 | 0.05 | 87 | 1018.9 |
| 20260904124006 | 69 | 106 | 0.0 | 4.0 | 0.04 | 0.05 | 0.05 | 86 | 1018.8 |
| 20260904123509 | 69 | 214 | 1.0 | 4.0 | 0.04 | 0.05 | 0.05 | 87 | 1018.9 |
| 20260904123005 | 68 | 214 | 0.0 | 4.0 | 0.04 | 0.05 | 0.05 | 87 | 1018.9 |
| 20260904122505 | 69 | 90 | 0.0 | 5.0 | 0.03 | 0.04 | 0.04 | 88 | 1019.0 |
| 20260904122003 | 69 | 92 | 1.0 | 5.0 | 0.03 | 0.04 | 0.04 | 87 | 1018.9 |
| 20260904121504 | 69 | 115 | 3.0 | 5.0 | 0.03 | 0.04 | 0.04 | 85 | 1019.0 |
| 20260904121001 | 69 | 170 | 0.0 | 4.0 | 0.02 | 0.03 | 0.03 | 86 | 1019.1 |
| 20260904120603 | 69 | 170 | 1.0 | 4.0 | 0.02 | 0.03 | 0.03 | 84 | 1019.0 |
| 20260904115559 | 69 | 170 | 1.0 | 4.0 | 0.01 | 0.02 | 0.02 | 83 | 1019.0 |
| 20260904115058 | 69 | 170 | 0.0 | 2.0 | 0.01 | 0.02 | 0.02 | 83 | 1019.0 |
| 20260904114605 | 69 | 170 | 0.0 | 2.0 | 0.01 | 0.02 | 0.02 | 84 | 1018.8 |
| 20260904114057 | 69 | 170 | 0.0 | 5.0 | 0.00 | 0.01 | 0.01 | 84 | 1018.9 |
| 20260904113556 | 69 | 170 | 1.0 | 5.0 | 0.00 | 0.01 | 0.01 | 84 | 1019.0 |
| 20260904113056 | 70 | 157 | 1.0 | 2.0 | 0.00 | 0.01 | 0.01 | 83 | 1019.0 |
| 20260904112557 | 70 | 157 | 0.0 | 4.0 | 0.00 | 0.01 | 0.01 | 82 | 1018.9 |
| 20260904112052 | 70 | 157 | 1.0 | 3.0 | 0.00 | 0.01 | 0.01 | 82 | 1018.9 |
| 20260904111552 | 70 | 157 | 1.0 | 4.0 | 0.01 | 0.01 | 0.01 | 80 | 1018.9 |
| 20260904111051 | 71 | 157 | 0.0 | 4.0 | 0.01 | 0.01 | 0.01 | 81 | 1018.9 |
| 20260904110550 | 71 | 157 | 1.0 | 4.0 | 0.01 | 0.01 | 0.01 | 79 | 1019.0 |
| 20260904110050 | 71 | 157 | 0.0 | 4.0 | 0.01 | 0.01 | 0.01 | 78 | 1019.0 |
| 20260904105550 | 71 | 157 | 1.0 | 4.0 | 0.01 | 0.01 | 0.01 | 78 | 1019.1 |
| 20260904105051 | 71 | 157 | 1.0 | 3.0 | 0.01 | 0.01 | 0.01 | 77 | 1019.1 |
| 20260904104552 | 71 | 103 | 0.0 | 2.0 | 0.01 | 0.01 | 0.01 | 78 | 1018.9 |